FW4287 Weather Reports


Display with metric or nautical units.
time (UTC)temp
F
wind
direction
speed
MPH
gust
MPH
rain 1hr
in
rain 24hr
in
rain mn
in
humidity
%
barometer
mb
20260902194530 59 11 6.0 8.0 0.00 0.00 0.00 79 1009.1
20260902193103 60 273 2.0 7.0 0.00 0.00 0.00 74 1009.1
20260902191528 60 249 2.0 6.0 0.00 0.00 0.00 73 1009.1
20260902190030 61 238 2.0 5.0 0.00 0.00 0.00 70 1009.1
20260902183031 61 278 2.0 5.0 0.00 0.00 0.00 70 1009.1
20260902181527 60 294 4.0 7.0 0.00 0.00 0.00 72 1009.0
20260902180030 60 285 4.0 8.0 0.00 0.00 0.00 72 1009.1
20260902174531 60 273 4.0 9.0 0.00 0.00 0.00 72 1009.1
20260902171529 60 292 4.0 9.0 0.00 0.00 0.00 72 1009.2
20260902170145 60 300 5.0 8.0 0.00 0.00 0.00 72 1009.4
20260902164720 0 0 0.0 0.0 0.00 0.00 0.00 100
20260902161602 57 360 4.0 7.0 0.00 0.00 0.00 79 1010.0
20260902160029 57 351 4.0 9.0 0.00 0.00 0.00 80 1010.1
20260902154529 56 352 6.0 10.0 0.00 0.00 0.00 80 1010.2
20260902153029 56 5 6.0 11.0 0.00 0.00 0.00 80 1010.3
20260902151530 55 18 6.0 10.0 0.00 0.00 0.00 81 1010.3
20260902150029 55 23 5.0 9.0 0.00 0.00 0.00 81 1010.5
20260902144608 55 30 4.0 8.0 0.00 0.00 0.00 81 1010.6
20260902143028 54 22 5.0 8.0 0.00 0.00 0.00 81 1010.7
20260902140030 49 19 2.0 5.0 0.00 0.00 0.00 84 1010.8
20260902131605 49 60 2.0 4.0 0.00 0.00 0.00 83 1011.0
20260902130032 50 194 1.0 5.0 0.00 0.00 0.00 81 1011.0
20260902124532 52 65 3.0 7.0 0.00 0.00 0.00 79 1011.0
20260902123032 53 56 4.0 7.0 0.00 0.00 0.00 80 1011.0
20260902121531 53 55 5.0 8.0 0.00 0.00 0.00 79 1011.1
20260902113034 57 311 2.0 8.0 0.00 0.00 0.00 67 1011.3
20260902103108 58 247 9.0 17.0 0.00 0.00 0.00 67 1011.6
20260902101603 58 238 9.0 18.0 0.00 0.00 0.00 69 1011.5
20260902100032 58 236 9.0 18.0 0.00 0.00 0.00 69 1011.6
20260902094607 58 231 9.0 15.0 0.00 0.00 0.00 69 1011.7
20260902093031 58 228 9.0 15.0 0.00 0.00 0.00 69 1011.9
20260902091531 58 227 9.0 16.0 0.00 0.00 0.00 69 1012.0
20260902090035 58 227 8.0 14.0 0.00 0.00 0.00 70 1011.9
20260902084530 58 237 8.0 14.0 0.00 0.00 0.00 69 1011.9
20260902083034 58 225 11.0 21.0 0.00 0.00 0.00 69 1011.9
20260902074529 58 229 9.0 18.0 0.00 0.00 0.00 69 1012.1
20260902073106 59 228 10.0 18.0 0.00 0.00 0.00 69 1012.2
20260902071644 59 232 11.0 21.0 0.00 0.00 0.00 69 1012.3
20260902070031 59 231 9.0 18.0 0.00 0.00 0.00 69 1012.6
20260902064647 59 236 10.0 18.0 0.00 0.00 0.00 69 1012.7
20260902063103 60 218 10.0 18.0 0.00 0.00 0.00 68 1012.9
20260902061531 60 219 9.0 17.0 0.00 0.00 0.00 67 1013.0
20260902054529 61 207 9.0 16.0 0.00 0.00 0.00 65 1012.9
20260902053030 61 215 8.0 14.0 0.00 0.00 0.00 65 1012.9
20260902044527 61 207 10.0 18.0 0.00 0.00 0.00 65 1012.5
20260902043031 61 209 10.0 16.0 0.00 0.00 0.00 65 1012.4
20260902041530 61 213 9.0 19.0 0.00 0.00 0.00 64 1012.3
20260902040027 61 209 9.0 16.0 0.00 0.00 0.00 64 1012.2
20260902033030 61 213 9.0 17.0 0.00 0.00 0.00 64 1011.9
20260902031532 61 219 11.0 19.0 0.00 0.00 0.00 64 1011.8
20260902030030 61 220 11.0 22.0 0.00 0.00 0.00 63 1011.9
20260902023031 62 203 11.0 20.0 0.00 0.00 0.00 61 1011.7
20260902020030 63 212 13.0 24.0 0.00 0.00 0.00 59 1011.6
20260902014532 64 210 12.0 20.0 0.00 0.00 0.00 57 1011.7
20260902013031 64 220 13.0 23.0 0.00 0.00 0.00 56 1011.6
20260902011608 65 235 13.0 23.0 0.00 0.00 0.00 54 1011.3
20260902010029 65 210 13.0 22.0 0.00 0.00 0.00 55 1011.4
20260902004603 66 228 11.0 21.0 0.00 0.00 0.00 54 1011.2
20260902001533 67 232 9.0 20.0 0.00 0.00 0.00 53 1010.8
20260902000028 67 227 10.0 18.0 0.00 0.00 0.00 53 1010.8
20260901233033 69 212 6.0 12.0 0.00 0.00 0.00 50 1010.9
20260901231604 69 226 7.0 15.0 0.00 0.00 0.00 49 1010.8
20260901224539 70 206 13.0 24.0 0.00 0.00 0.00 49 1010.7
20260901223030 71 221 13.0 22.0 0.00 0.00 0.00 48 1010.6
20260901221531 71 226 9.0 21.0 0.00 0.00 0.00 50 1010.5
20260901220108 68 353 5.0 10.0 0.00 0.00 0.00 58 1010.3
20260901214530 68 10 6.0 13.0 0.00 0.00 0.00 58 1010.3
20260901211531 67 9 8.0 17.0 0.00 0.00 0.00 59 1010.5
20260901210029 69 351 7.0 15.0 0.00 0.00 0.00 55 1010.5
20260901204532 70 319 6.0 12.0 0.00 0.00 0.00 53 1010.5
20260901203107 70 302 5.0 11.0 0.00 0.00 0.00 54 1010.6
20260901201531 70 343 7.0 12.0 0.00 0.00 0.00 53 1010.6
20260901200032 71 4 3.0 12.0 0.00 0.00 0.00 48 1010.7